FW3260 Weather Reports


Display with metric or nautical units.
time (UTC)temp
F
wind
direction
speed
MPH
gust
MPH
rain 1hr
in
rain 24hr
in
rain mn
in
humidity
%
barometer
mb
20260509053038 42 0.0 0.0 0.00 0.00 0.00 76 1014.8
20260509052018 42 0.0 0.0 0.00 0.00 0.00 76 1014.7
20260509051018 42 0.0 0.0 0.00 0.00 0.00 76 1014.7
20260509050018 42 0.0 0.0 0.00 0.00 0.00 76 1014.7
20260509045018 42 0.0 0.0 0.00 0.00 0.00 76 1014.6
20260509044058 42 0.0 0.0 0.00 0.00 0.00 75 1014.6
20260509043018 42 0.0 0.0 0.00 0.00 0.00 75 1014.6
20260509042018 42 0.0 0.0 0.00 0.00 0.00 75 1014.5
20260509041018 43 0.0 0.0 0.00 0.00 0.00 75 1014.5
20260509040038 43 0.0 0.0 0.00 0.00 0.00 74 1014.4
20260509035038 43 0.0 0.0 0.00 0.00 0.00 74 1014.3
20260509034018 43 0.0 0.0 0.00 0.00 0.00 73 1014.2
20260509033058 44 0.0 0.0 0.00 0.00 0.00 73 1014.2
20260509032018 44 0.0 0.0 0.00 0.00 0.00 72 1014.3
20260509031019 44 0.0 0.0 0.00 0.00 0.00 72 1014.2
20260509030018 45 0.0 0.0 0.00 0.00 0.00 71 1014.1
20260509025018 45 0.0 0.0 0.00 0.00 0.00 70 1014.1
20260509024018 45 0.0 0.0 0.00 0.00 0.00 69 1014.1
20260509023038 46 0.0 0.0 0.00 0.00 0.00 68 1014.1
20260509022018 46 0.0 0.0 0.00 0.00 0.00 67 1013.9
20260509021039 47 0.0 0.0 0.00 0.00 0.00 66 1014.0
20260509020018 47 0.0 0.0 0.00 0.00 0.00 65 1013.8
20260509015039 48 0.0 1.0 0.00 0.00 0.00 64 1013.6
20260509014059 49 0.0 0.0 0.00 0.00 0.00 62 1013.5
20260509013038 49 0.0 0.0 0.00 0.00 0.00 60 1013.2
20260509012018 50 0.0 0.0 0.00 0.00 0.00 59 1013.1
20260509011058 50 0.0 0.0 0.00 0.00 0.00 56 1012.9
20260509010018 51 0.0 1.0 0.00 0.00 0.00 55 1012.7
20260509005018 52 248 1.0 2.0 0.00 0.00 0.00 55 1012.5
20260509004018 52 225 1.0 3.0 0.00 0.00 0.00 53 1012.4
20260509003018 53 0.0 1.0 0.00 0.00 0.00 52 1012.1
20260509002018 53 270 1.0 2.0 0.00 0.00 0.00 52 1011.8
20260509001018 53 225 1.0 5.0 0.00 0.00 0.00 52 1011.6
20260509000018 53 270 2.0 6.0 0.00 0.00 0.00 52 1011.5
20260508235018 53 270 1.0 4.0 0.00 0.00 0.00 53 1011.3
20260508234038 53 158 1.0 4.0 0.00 0.00 0.00 53 1011.2
20260508233038 54 0.0 3.0 0.00 0.00 0.00 51 1011.0
20260508232018 54 293 1.0 6.0 0.00 0.00 0.00 50 1010.9
20260508231018 55 293 1.0 3.0 0.00 0.00 0.00 49 1010.8
20260508230018 55 338 3.0 8.0 0.00 0.00 0.00 48 1010.7
20260508225018 56 248 2.0 7.0 0.00 0.00 0.00 48 1010.6
20260508224118 56 203 2.0 4.0 0.00 0.00 0.00 48 1010.5
20260508223018 57 225 1.0 3.0 0.00 0.00 0.00 46 1010.4
20260508222018 57 315 3.0 6.0 0.00 0.00 0.00 45 1010.5
20260508221038 58 270 3.0 6.0 0.00 0.00 0.00 45 1010.5
20260508220018 58 293 3.0 7.0 0.00 0.00 0.00 44 1010.5
20260508215018 58 293 3.0 8.0 0.00 0.00 0.00 43 1010.6
20260508214017 58 293 3.0 8.0 0.00 0.00 0.00 44 1010.3
20260508213019 59 293 3.0 9.0 0.00 0.00 0.00 44 1010.4
20260508212017 59 270 3.0 12.0 0.00 0.00 0.00 45 1010.3
20260508211018 59 270 3.0 11.0 0.00 0.00 0.00 45 1010.2
20260508210019 59 315 4.0 9.0 0.00 0.00 0.00 44 1010.0
20260508205018 59 270 3.0 14.0 0.00 0.00 0.00 43 1010.0
20260508204017 58 293 4.0 11.0 0.00 0.00 0.00 42 1010.2
20260508203018 57 270 4.0 9.0 0.00 0.00 0.00 41 1010.1
20260508202017 58 293 3.0 11.0 0.00 0.00 0.00 41 1010.1
20260508201019 58 270 3.0 8.0 0.00 0.00 0.00 41 1010.0
20260508200019 59 293 4.0 8.0 0.00 0.00 0.00 40 1009.9
20260508195019 59 293 3.0 10.0 0.00 0.00 0.00 43 1009.8
20260508194020 59 293 5.0 11.0 0.00 0.00 0.00 42 1009.9
20260508193039 60 315 3.0 7.0 0.00 0.00 0.00 42 1009.8
20260508192040 59 270 3.0 10.0 0.00 0.00 0.00 41 1009.9
20260508191019 60 315 5.0 15.0 0.00 0.00 0.00 41 1009.8
20260508190038 59 270 4.0 9.0 0.00 0.00 0.00 41 1009.9
20260508185019 59 225 3.0 10.0 0.00 0.00 0.00 41 1009.9
20260508184019 59 293 5.0 10.0 0.00 0.00 0.00 40 1010.0
20260508183039 58 293 3.0 8.0 0.00 0.00 0.00 41 1009.8
20260508182039 59 270 3.0 9.0 0.00 0.00 0.00 40 1009.9
20260508181020 60 270 3.0 8.0 0.00 0.00 0.00 38 1009.9
20260508180019 59 270 3.0 8.0 0.00 0.00 0.00 40 1009.9
20260508175019 59 0 3.0 12.0 0.00 0.00 0.00 40 1009.9
20260508174019 59 315 3.0 13.0 0.00 0.00 0.00 40 1010.0
20260508173019 60 293 4.0 11.0 0.00 0.00 0.00 40 1010.0
20260508172019 60 270 4.0 13.0 0.00 0.00 0.00 42 1009.9
20260508171019 59 293 4.0 13.0 0.00 0.00 0.00 41 1010.0
20260508170019 59 270 3.0 8.0 0.00 0.00 0.00 41 1009.9
20260508165019 58 293 3.0 9.0 0.00 0.00 0.00 40 1010.0
20260508164019 58 315 4.0 12.0 0.00 0.00 0.00 42 1010.1
20260508163019 59 315 3.0 10.0 0.00 0.00 0.00 45 1010.2
20260508162019 59 315 4.0 16.0 0.00 0.00 0.00 40 1010.3
20260508161019 59 270 3.0 8.0 0.00 0.00 0.00 41 1010.0
20260508160019 59 293 4.0 9.0 0.00 0.00 0.00 43 1010.0
20260508155019 58 270 5.0 11.0 0.00 0.00 0.00 41 1010.1
20260508154019 58 293 6.0 12.0 0.00 0.00 0.00 42 1010.2
20260508153019 58 315 4.0 13.0 0.00 0.00 0.00 41 1010.2
20260508152019 58 293 4.0 9.0 0.00 0.00 0.00 41 1010.3
20260508151019 57 0 3.0 8.0 0.00 0.00 0.00 43 1010.3
20260508150019 58 248 3.0 10.0 0.00 0.00 0.00 42 1010.4
20260508145039 58 293 2.0 8.0 0.00 0.00 0.00 43 1010.4
20260508144019 57 270 2.0 4.0 0.00 0.00 0.00 48 1010.5
20260508143039 56 270 2.0 6.0 0.00 0.00 0.00 42 1010.5
20260508142039 56 0 3.0 7.0 0.00 0.00 0.00 43 1010.8
20260508141019 56 293 3.0 7.0 0.00 0.00 0.00 44 1011.0
20260508140019 56 270 3.0 6.0 0.00 0.00 0.00 44 1011.0
20260508135018 55 270 4.0 12.0 0.00 0.00 0.00 43 1011.1
20260508134019 55 270 3.0 10.0 0.00 0.00 0.00 43 1011.1
20260508133019 55 315 3.0 9.0 0.00 0.00 0.00 46 1011.2
20260508132019 55 270 3.0 8.0 0.00 0.00 0.00 45 1011.2
20260508131018 54 270 3.0 9.0 0.00 0.00 0.00 46 1011.2
20260508130019 54 315 2.0 10.0 0.00 0.00 0.00 46 1011.3
20260508125059 53 315 3.0 6.0 0.00 0.00 0.00 49 1011.3
20260508124018 53 248 3.0 8.0 0.00 0.00 0.00 48 1011.3
20260508123019 53 270 2.0 8.0 0.00 0.00 0.00 50 1011.3
20260508122019 52 293 1.0 3.0 0.00 0.00 0.00 51 1011.3
20260508121018 51 270 2.0 7.0 0.00 0.00 0.00 52 1011.2
20260508120059 50 315 1.0 3.0 0.00 0.00 0.00 53 1011.1
20260508115118 49 315 2.0 5.0 0.00 0.00 0.00 54 1011.2
20260508114018 49 315 2.0 5.0 0.00 0.00 0.00 56 1011.0
20260508113018 48 338 1.0 3.0 0.00 0.00 0.00 57 1011.0
20260508112018 47 315 2.0 4.0 0.00 0.00 0.00 59 1011.0
20260508111018 46 293 1.0 2.0 0.00 0.00 0.00 60 1010.8
20260508110018 45 0.0 2.0 0.00 0.00 0.00 61 1010.8
20260508105018 44 0.0 2.0 0.00 0.00 0.00 63 1010.9
20260508104018 44 158 1.0 4.0 0.00 0.00 0.00 64 1010.5
20260508103018 43 225 1.0 2.0 0.00 0.00 0.00 65 1010.4
20260508102018 43 0.0 0.0 0.00 0.00 0.00 65 1010.4
20260508101019 43 0.0 2.0 0.00 0.00 0.00 63 1010.1
20260508100018 43 180 1.0 3.0 0.00 0.02 0.00 63 1010.2
20260508095018 43 248 1.0 4.0 0.00 0.02 0.00 63 1010.1
20260508094018 43 248 1.0 3.0 0.00 0.02 0.00 64 1010.0
20260508093018 43 293 1.0 5.0 0.00 0.02 0.00 65 1010.1
20260508092018 42 0.0 3.0 0.00 0.02 0.00 67 1009.9
20260508091018 42 248 1.0 4.0 0.00 0.02 0.00 68 1009.9
20260508090019 42 0.0 1.0 0.00 0.03 0.00 70 1009.8
20260508085018 41 0.0 1.0 0.00 0.03 0.00 70 1009.9
20260508084018 41 0.0 1.0 0.00 0.03 0.00 70 1009.8
20260508083038 41 203 1.0 4.0 0.00 0.03 0.00 70 1010.0
20260508082018 41 0.0 2.0 0.00 0.03 0.00 71 1009.9
20260508081018 41 225 1.0 3.0 0.00 0.03 0.00 71 1009.7
20260508080018 41 0.0 0.0 0.00 0.03 0.00 71 1009.4
20260508075018 41 0.0 0.0 0.00 0.03 0.00 70 1009.0
20260508074058 41 203 1.0 3.0 0.00 0.03 0.00 69 1008.9
20260508073018 41 0.0 2.0 0.00 0.03 0.00 68 1008.7
20260508072018 42 0.0 2.0 0.00 0.03 0.00 67 1008.6
20260508071018 42 0.0 1.0 0.00 0.03 0.00 65 1008.4
20260508070018 43 0.0 2.0 0.00 0.03 0.00 64 1008.3
20260508065018 43 0.0 1.0 0.00 0.03 0.00 63 1008.2
20260508064018 43 0.0 0.0 0.00 0.03 0.00 62 1008.4
20260508063018 44 0.0 2.0 0.00 0.03 0.00 62 1008.4
20260508062018 44 0.0 2.0 0.00 0.03 0.00 61 1008.3
20260508061017 44 0.0 1.0 0.00 0.03 0.00 61 1008.4
20260508060038 45 0.0 2.0 0.00 0.03 0.00 61 1008.5
20260508055018 45 0.0 0.0 0.00 0.03 0.00 60 1008.5
20260508054018 45 0.0 0.0 0.00 0.03 0.00 60 1008.6